When you browse on this site, cookies collect data to enhance your experience and personalize the content and advertising you see.
Visit our Privacy Policy to learn more. By continuing to use the site, you agree to this use of cookies and data.
  • In United Kingdom
  • List of Countries
  • For 7 days
  • Water Temperature
  • Satellite Maps
  • Weather Map
  • Weather Widgets
  • user-avatar
    Login

    Hourly Weather Solwezi

    Today, 22 May, Wednesday

    Time Temperature Precipitation Wind Pressure Humidity
    00:00 +31°C° 0 mm 2 mps 711 mmHg 12%
    01:00 +30°C° 0 mm 2 mps 711 mmHg 11%
    02:00 +30°C° 0 mm 3 mps 711 mmHg 10%
    03:00 +29°C° 0 mm 3 mps 711 mmHg 10%
    04:00 +28°C° 0 mm 3 mps 711 mmHg 10%
    05:00 +28°C° 0 mm 3 mps 711 mmHg 10%
    06:00 +30°C° 0 mm 3 mps 712 mmHg 8%
    07:00 +33°C° 0 mm 3 mps 713 mmHg 7%
    08:00 +36°C° 0 mm 3 mps 714 mmHg 9%
    09:00 +38°C° 0 mm 3 mps 714 mmHg 10%
    10:00 +39°C° 0 mm 3 mps 714 mmHg 11%
    11:00 +42°C° 0 mm 3 mps 714 mmHg 13%
    12:00 +43°C° 0 mm 3 mps 713 mmHg 11%
    13:00 +43°C° 0 mm 3 mps 713 mmHg 9%
    14:00 +39°C° 0 mm 0 mps 712 mmHg 15%
    15:00 +42°C° 0 mm 1 mps 712 mmHg 14%
    16:00 +42°C° 0 mm 1 mps 711 mmHg 13%
    17:00 +42°C° 0 mm 1 mps 711 mmHg 12%
    18:00 +39°C° 0 mm 1 mps 711 mmHg 14%
    19:00 +36°C° 0 mm 1 mps 711 mmHg 16%
    20:00 +33°C° 0 mm 1 mps 711 mmHg 18%
    21:00 +32°C° 0 mm 1 mps 711 mmHg 17%
    22:00 +31°C° 0 mm 1 mps 711 mmHg 16%
    23:00 +30°C° 0 mm 1 mps 711 mmHg 15%

    Tomorrow, 23 May, Thursday

    Time Temperature Precipitation Wind Pressure Humidity
    00:00 +29°C° 0 mm 1 mps 711 mmHg 14%
    01:00 +29°C° 0 mm 1 mps 711 mmHg 12%
    02:00 +29°C° 0 mm 1 mps 711 mmHg 11%
    03:00 +29°C° 0 mm 2 mps 711 mmHg 9%
    04:00 +30°C° 0 mm 3 mps 711 mmHg 7%
    05:00 +30°C° 0 mm 4 mps 711 mmHg 5%
    06:00 +33°C° 0 mm 4 mps 712 mmHg 5%
    07:00 +34°C° 0 mm 4 mps 712 mmHg 4%
    08:00 +36°C° 0 mm 4 mps 713 mmHg 4%
    09:00 +38°C° 0 mm 4 mps 713 mmHg 4%
    10:00 +41°C° 0 mm 4 mps 713 mmHg 3%
    11:00 +43°C° 0 mm 4 mps 713 mmHg 2%
    12:00 +44°C° 0 mm 3 mps 713 mmHg 3%
    13:00 +44°C° 0 mm 3 mps 712 mmHg 4%
    14:00 +45°C° 0 mm 2 mps 711 mmHg 5%
    15:00 +45°C° 0 mm 2 mps 711 mmHg 5%
    16:00 +45°C° 0 mm 2 mps 710 mmHg 5%
    17:00 +43°C° 0 mm 2 mps 710 mmHg 5%
    18:00 +40°C° 0 mm 2 mps 710 mmHg 6%
    19:00 +38°C° 0 mm 2 mps 710 mmHg 7%
    20:00 +35°C° 0 mm 2 mps 709 mmHg 8%
    21:00 +34°C° 0 mm 2 mps 710 mmHg 9%
    22:00 +32°C° 0 mm 2 mps 710 mmHg 9%
    23:00 +31°C° 0 mm 1 mps 710 mmHg 10%

    Day after tomorrow, 24 May, Friday

    Time Temperature Precipitation Wind Pressure Humidity
    00:00 +31°C° 0 mm 2 mps 710 mmHg 10%
    01:00 +30°C° 0 mm 2 mps 710 mmHg 11%
    02:00 +30°C° 0 mm 2 mps 710 mmHg 12%
    03:00 +29°C° 0 mm 1 mps 710 mmHg 15%
    04:00 +28°C° 0 mm 1 mps 710 mmHg 18%
    05:00 +25°C° 0 mm 0 mps 710 mmHg 21%
    06:00 +30°C° 0 mm 1 mps 711 mmHg 21%
    07:00 +34°C° 0 mm 2 mps 712 mmHg 22%
    08:00 +36°C° 0 mm 3 mps 713 mmHg 22%
    09:00 +38°C° 0 mm 3 mps 713 mmHg 21%
    10:00 +41°C° 0 mm 4 mps 713 mmHg 21%
    11:00 +42°C° 0 mm 5 mps 714 mmHg 20%
    12:00 +43°C° 0 mm 4 mps 713 mmHg 18%
    13:00 +44°C° 0 mm 3 mps 712 mmHg 16%
    14:00 +43°C° 0 mm 2 mps 711 mmHg 14%
    15:00 +43°C° 0 mm 2 mps 711 mmHg 13%
    16:00 +43°C° 0 mm 2 mps 710 mmHg 13%
    17:00 +43°C° 0 mm 1 mps 710 mmHg 12%
    18:00 +41°C° 0 mm 2 mps 710 mmHg 15%
    19:00 +39°C° 0 mm 2 mps 710 mmHg 17%
    20:00 +37°C° 0 mm 2 mps 710 mmHg 19%
    21:00 +36°C° 0 mm 2 mps 710 mmHg 21%
    22:00 +35°C° 0 mm 3 mps 711 mmHg 22%
    23:00 +35°C° 0 mm 3 mps 711 mmHg 24%

    25 May, Saturday

    Time Temperature Precipitation Wind Pressure Humidity
    00:00 +34°C° 0 mm 3 mps 711 mmHg 28%
    01:00 +33°C° 0 mm 3 mps 710 mmHg 32%
    02:00 +33°C° 0 mm 3 mps 710 mmHg 36%
    03:00 +31°C° 0 mm 3 mps 710 mmHg 38%
    04:00 +31°C° 0 mm 3 mps 710 mmHg 40%
    05:00 +30°C° 0 mm 3 mps 710 mmHg 41%
    06:00 +33°C° 0 mm 3 mps 711 mmHg 39%
    07:00 +34°C° 0 mm 4 mps 712 mmHg 37%
    08:00 +36°C° 0 mm 5 mps 713 mmHg 35%
    09:00 +37°C° 0 mm 5 mps 713 mmHg 31%
    10:00 +40°C° 0 mm 5 mps 713 mmHg 28%
    11:00 +42°C° 0 mm 5 mps 713 mmHg 25%
    12:00 +42°C° 0 mm 4 mps 713 mmHg 22%
    13:00 +43°C° 0 mm 3 mps 712 mmHg 19%
    14:00 +43°C° 0 mm 2 mps 711 mmHg 17%
    15:00 +43°C° 0 mm 2 mps 710 mmHg 17%
    16:00 +42°C° 0 mm 2 mps 710 mmHg 17%
    17:00 +42°C° 0 mm 1 mps 710 mmHg 17%
    18:00 +41°C° 0 mm 2 mps 710 mmHg 18%
    19:00 +40°C° 0 mm 3 mps 710 mmHg 20%
    20:00 +39°C° 0 mm 3 mps 711 mmHg 22%
    21:00 +38°C° 0 mm 3 mps 711 mmHg 23%
    22:00 +37°C° 0 mm 3 mps 711 mmHg 25%
    23:00 +36°C° 0 mm 3 mps 711 mmHg 27%

    26 May, Sunday

    Time Temperature Precipitation Wind Pressure Humidity
    00:00 +35°C° 0 mm 3 mps 711 mmHg 31%
    01:00 +34°C° 0 mm 4 mps 710 mmHg 35%
    02:00 +33°C° 0 mm 4 mps 710 mmHg 39%
    03:00 +31°C° 0 mm 3 mps 710 mmHg 45%
    04:00 +30°C° 0 mm 3 mps 710 mmHg 50%
    05:00 +30°C° 0 mm 3 mps 711 mmHg 56%
    06:00 +32°C° 0 mm 4 mps 711 mmHg 53%
    07:00 +33°C° 0 mm 5 mps 712 mmHg 49%
    08:00 +34°C° 0 mm 6 mps 713 mmHg 46%
    09:00 +36°C° 0 mm 6 mps 713 mmHg 40%
    10:00 +39°C° 0 mm 6 mps 713 mmHg 34%
    11:00 +42°C° 0 mm 6 mps 713 mmHg 28%
    12:00 +42°C° 0 mm 4 mps 712 mmHg 25%
    13:00 +43°C° 0 mm 3 mps 711 mmHg 22%
    14:00 +43°C° 0 mm 2 mps 710 mmHg 20%
    15:00 +42°C° 0 mm 1 mps 710 mmHg 20%
    16:00 +42°C° 0 mm 1 mps 710 mmHg 20%
    17:00 +42°C° 0 mm 1 mps 710 mmHg 20%
    18:00 +40°C° 0.4 mm 1 mps 710 mmHg 22%
    19:00 +39°C° 0.4 mm 1 mps 710 mmHg 25%
    20:00 +36°C° 0.4 mm 1 mps 710 mmHg 27%
    21:00 +36°C° 0 mm 1 mps 710 mmHg 27%
    22:00 +37°C° 0 mm 2 mps 710 mmHg 28%
    23:00 +36°C° 0 mm 2 mps 710 mmHg 28%

    27 May, Monday

    Time Temperature Precipitation Wind Pressure Humidity
    00:00 +36°C° 0 mm 3 mps 710 mmHg 30%
    01:00 +35°C° 0 mm 3 mps 710 mmHg 31%
    02:00 +35°C° 0 mm 4 mps 710 mmHg 32%
    03:00 +34°C° 0 mm 5 mps 710 mmHg 37%
    04:00 +33°C° 0 mm 5 mps 710 mmHg 42%
    05:00 +32°C° 0 mm 5 mps 711 mmHg 48%
    06:00 +33°C° 0 mm 6 mps 711 mmHg 46%
    07:00 +34°C° 0 mm 7 mps 712 mmHg 44%
    08:00 +35°C° 0 mm 7 mps 712 mmHg 42%
    09:00 +38°C° 0 mm 7 mps 712 mmHg 38%
    10:00 +39°C° 0 mm 7 mps 712 mmHg 34%
    11:00 +41°C° 0 mm 7 mps 712 mmHg 29%
    12:00 +42°C° 0 mm 6 mps 712 mmHg 27%
    13:00 +43°C° 0 mm 5 mps 711 mmHg 24%
    14:00 +45°C° 0 mm 5 mps 710 mmHg 22%
    15:00 +43°C° 0 mm 4 mps 710 mmHg 22%
    16:00 +43°C° 0 mm 3 mps 710 mmHg 21%
    17:00 +42°C° 0 mm 2 mps 709 mmHg 21%
    18:00 +41°C° 0 mm 2 mps 709 mmHg 23%
    19:00 +39°C° 0 mm 2 mps 709 mmHg 25%
    20:00 +38°C° 0 mm 3 mps 710 mmHg 26%
    21:00 +38°C° 0.1 mm 3 mps 710 mmHg 28%
    22:00 +37°C° 0.1 mm 3 mps 710 mmHg 31%
    23:00 +36°C° 0.1 mm 3 mps 711 mmHg 33%
    Show more